This is the latest recevied weather packets stored in our database for station/object KC2WGU. If no packets are shown the sender has not sent any weather packets the latest 10 day(s).
| Time | Temp. | Humidity | Pressure | Rain* | Wind** | Luminosity | Snow |
|---|---|---|---|---|---|---|---|
| 1777761015 | 7.78° C | 60% | 1010.1 hPa | 0 mm | - | 0 W/m² | - |
| 1777760416 | 7.22° C | 59% | 1009.9 hPa | 0 mm | - | 0 W/m² | - |
| 1777759816 | 7.78° C | 59% | 1009.9 hPa | 0 mm | - | 0 W/m² | - |
| 1777759215 | 7.78° C | 60% | 1010 hPa | 0 mm | - | 0 W/m² | - |
| 1777758616 | 8.33° C | 54% | 1009.9 hPa | 0 mm | - | 0 W/m² | - |
| 1777758015 | 8.33° C | 59% | 1009.9 hPa | 0 mm | - | 0 W/m² | - |
| 1777757416 | 7.78° C | 58% | 1009.9 hPa | 0 mm | - | 0 W/m² | - |
| 1777756816 | 8.33° C | 56% | 1009.7 hPa | 0 mm | - | 0 W/m² | - |
| 1777756215 | 8.89° C | 55% | 1009.7 hPa | 0 mm | - | 0 W/m² | - |
| 1777755615 | 8.33° C | 60% | 1009.8 hPa | 0 mm | - | 0 W/m² | - |
| 1777755015 | 7.78° C | 59% | 1009.8 hPa | 0 mm | - | 0 W/m² | - |
| 1777754415 | 7.78° C | 58% | 1009.8 hPa | 0 mm | - | 0 W/m² | - |
| 1777753816 | 8.33° C | 59% | 1009.9 hPa | 0 mm | - | 0 W/m² | - |
| 1777753216 | 7.78° C | 57% | 1009.9 hPa | 0 mm | - | 0 W/m² | - |
| 1777752016 | 8.33° C | 59% | 1010.2 hPa | 0 mm | - | 0 W/m² | - |
| 1777751415 | 7.78° C | 58% | 1010.3 hPa | 0 mm | - | 0 W/m² | - |
| 1777750815 | 7.78° C | 57% | 1010.4 hPa | 0 mm | - | 0 W/m² | - |
| 1777750215 | 8.33° C | 56% | 1010.4 hPa | 0 mm | - | 0 W/m² | - |
| 1777749616 | 7.78° C | 58% | 1010.5 hPa | 0 mm | - | 0 W/m² | - |
| 1777749016 | 7.78° C | 56% | 1010.6 hPa | 0 mm | - | 0 W/m² | - |
| 1777748416 | 7.78° C | 54% | 1010.5 hPa | 0 mm | - | 0 W/m² | - |
| 1777747815 | 8.33° C | 53% | 1010.5 hPa | 0 mm | - | 0 W/m² | - |
| 1777747215 | 8.89° C | 51% | 1010.5 hPa | 0 mm | - | 0 W/m² | - |
| 1777746616 | 8.33° C | 53% | 1010.5 hPa | 0 mm | - | 0 W/m² | - |
| 1777746016 | 8.89° C | 55% | 1010.5 hPa | 0 mm | - | 0 W/m² | - |
* Rain latest hour (hover to see other rain measurements)
** Current wind speed in m/s (hover to see current wind gust speed)